Location: Kikino
(54.4440°N, 112.0940°W)
Time: 05:45:11
(UTC+00:00)

AO-27 - Visible Passes

Search period start: 01 December 2023 00:00
Search period end: 11 December 2023 00:00
Orbit: 785 x 796 km, 98.8° (Epoch: 29 November)

Date Brightness Start Highest point End Pass type
(mag) Time Alt. Az. Time Alt. Az. Time Alt. Az.
01 Dec 9.6 01:25:29 13° NNE 01:25:29 13° NNE 01:26:37 10° N visible
01 Dec 9.9 03:06:13 16° N 03:06:13 16° N 03:07:15 10° NNW visible
02 Dec 9.7 00:55:45 10° NNE 00:55:45 10° NNE 00:56:04 10° NNE visible
02 Dec 9.7 02:36:29 17° N 02:36:29 17° N 02:37:40 10° N visible
03 Dec 9.6 02:06:45 16° N 02:06:45 16° N 02:07:57 10° N visible
03 Dec 10.3 03:47:28 12° NNW 03:47:28 12° NNW 03:47:55 10° NNW visible
04 Dec 9.6 01:37:00 14° NNE 01:37:00 14° NNE 01:38:04 10° N visible
04 Dec 10.0 03:17:44 14° NNW 03:17:44 14° NNW 03:18:30 10° NNW visible
05 Dec 9.7 01:07:15 11° NNE 01:07:15 11° NNE 01:07:50 10° NNE visible
05 Dec 9.8 02:47:58 15° N 02:47:58 15° N 02:48:57 10° N visible
06 Dec 9.7 02:18:13 15° N 02:18:13 15° N 02:19:17 10° N visible
06 Dec 10.5 03:58:57 11° NNW 03:58:57 11° NNW 03:59:06 10° NNW visible
07 Dec 9.7 01:48:28 14° NNE 01:48:28 14° NNE 01:49:28 10° N visible
07 Dec 10.2 03:29:12 13° NNW 03:29:12 13° NNW 03:29:43 10° NNW visible
08 Dec 9.7 01:18:42 12° NNE 01:18:42 12° NNE 01:19:24 10° NNE visible
08 Dec 10.0 02:59:26 14° N 02:59:26 14° N 03:00:13 10° N visible
09 Dec 9.8 02:29:40 15° N 02:29:40 15° N 02:30:35 10° N visible
10 Dec 9.7 01:59:54 14° N 01:59:54 14° N 02:00:50 10° N visible
10 Dec 10.3 03:40:38 12° NNW 03:40:38 12° NNW 03:40:55 10° NNW visible
